Location: Casalecchio di Reno
(44.4760°N, 11.2757°E)
Time: 13:57:45
(UTC+02:00)

UWE-3 - Pass Details

Date: 21 June 2024
Orbit: 566 x 652 km, 97.8° (Epoch: 11 July)

Event Time Altitude Azimuth Distance (km) Brightness Sun altitude
Rises 03:01:59 0° 24° (NNE) 2,885 ? -17.9°
Reaches altitude 10° 03:04:29 10° 37° (NE) 1,959 ? -17.8°
Maximum altitude 03:08:04 26° 94° (E) 1,184 ? -17.5°
Enters shadow 03:10:56 13° 147° (SSE) 1,704 ? -17.2°
